Regional Weather Roundup
Issued by NWS New Orleans/Baton Rouge, LA

Home | Current Version | Previous Version | Graphics & Text | Print | Product List | Glossary On
Versions: 1 2 3 4 5 6 7 8 9 10 11 12 13 14 15 16 17 18 19 20 21 22 23 24 25 26 27 28 29 30 31 32 33 34 35 36 37 38 39 40 41 42 43 44 45 46 47 48 49 50
090
ASUS44 KLIX 210010
RWRLIX
NEW ORLEANS REGIONAL WEATHER ROUNDUP
NATIONAL WEATHER SERVICE NEW ORLEANS LA
600 PM CST THU NOV 20 2014

NOTE: "FAIR" INDICATES FEW OR NO CLOUDS BELOW 12,000 FEET WITH NO
      SIGNIFICANT WEATHER AND/OR OBSTRUCTIONS TO VISIBILITY.
      SKY/WX - SKY CONDITION AND SIGNIFICANT WEATHER.
      TMP - AIR TEMPERATURE.     DP    - DEWPOINT TEMPERATURE.
      RH  - RELATIVE HUMIDITY.   PRES  - PRESSURE.
      HI  - HEAT INDEX.          WCI   - WIND CHILL INDEX.

*  THESE STATIONS ARE NOT NWS OR FAA STATIONS AND ARE NOT UNDER
   NWS QUALITY CONTROL.

LAZ038-040-048-061>063-065>067-069-210100-
SOUTHEAST LOUISIANA

CITY           SKY/WX    TMP DP  RH WIND       PRES   REMARKS
N.O. AUDUBON     N/A     62  47  59 MISG        N/A
6HR MIN TEMP:  61; 6HR MAX TEMP:  71;

N.O. INTL ARPT PTCLDY    59  45  59 SE6       30.22R
6HR MIN TEMP:  59; 6HR MAX TEMP:  71;

N.O. LAKEFRONT CLEAR     60  44  55 SE9       30.22S
6HR MIN TEMP:  60; 6HR MAX TEMP:  69;

N.O. DOWNTOWN*   N/A     61  43  51 S5        30.23S
6HR MIN TEMP:  61; 6HR MAX TEMP:  72;

SLIDELL        CLEAR     56  43  61 CALM      30.22R
6HR MIN TEMP:  56; 6HR MAX TEMP:  70;

BATON ROUGE    PTCLDY    58  47  66 E7        30.18R
6HR MIN TEMP:  56; 6HR MAX TEMP:  71;

BOOTHVILLE     CLEAR     58  48  69 CALM      30.24R
6HR MIN TEMP:  57; 6HR MAX TEMP:  67;

BELLE CHASSE   PTCLDY    58  46  64 SE7       30.22S
6HR MIN TEMP:  58; 6HR MAX TEMP:  71;

BOGALUSA*        N/A     61  45  56 S7        30.22R
6HR MIN TEMP:  61; 6HR MAX TEMP:  71;

NEW ROADS*       N/A     58  48  70 SE3       30.18R
6HR MIN TEMP:  58; 6HR MAX TEMP:  72;

GONZALES*        N/A     60  49  66 E3        30.19R
6HR MIN TEMP:  60; 6HR MAX TEMP:  72;

HAMMOND*       PTCLDY    57  45  62 S7        30.22R
HOUMA*         CLEAR     55  46  71 E7        30.20
PORT FOURCHON* CLEAR     63  48  59 E6        30.25S

$$

MSZ070-080>082-210100-
SOUTHERN MISSISSIPPI

CITY           SKY/WX    TMP DP  RH WIND       PRES   REMARKS
MCCOMB         MOCLDY    58  46  64 S6        30.19R
6HR MIN TEMP:  57; 6HR MAX TEMP:  70;

GULFPORT       CLEAR     53  44  71 CALM      30.22S
6HR MIN TEMP:  53; 6HR MAX TEMP:  65;

BILOXI         CLEAR     56  47  71 S1        30.23R
6HR MIN TEMP:  54; 6HR MAX TEMP:  65;

PASCAGOULA     CLEAR     47  46  97 CALM      30.24R
6HR MIN TEMP:  47; 6HR MAX TEMP:  68;

STENNIS ARPT*  CLEAR     54  37  54 CALM      30.22

$$

COASTAL OBSERVATIONS
LAKE AND NEARSHORE STATIONS

STATION/POSITION TIME  TEMP    WIND        PRES    WAVE
                       AIR SEA DIR/SP/G            HT/PER
                 (UTC) (F)     (DEG/KT/KT) (MB)    (FT/S)
PASCAGOULA       0000   59     180/  3/  3 1023.2
WAVELAND YACHT   0000   58     200/  6/  8 1022.5
GRAND ISLE       0000   61 57  120/  3/  5 1023.9
SOUTHWEST PASS   0000   63 74              1024.0
NEW CANAL        0000   61 54  170/  5/  8 1023.5
SHELL BEACH      0000   58 50  140/  7/  7 1023.4

OFFSHORE STATIONS

STATION/POSITION TIME  TEMP    WIND        PRES    WAVE
                       AIR SEA DIR/SP/G            HT/PER
                 (UTC) (F)     (DEG/KT/KT) (MB)    (FT/S)

$$




USA.gov is the U.S. government's official web portal to all federal, state and local government web resources and services.